Flag for Liberia Weather past 2 weeks in Kakata, Liberia

Now
84 °F

Thunderstorms. Partly sunny.


Feels Like: 96 °F
Forecast: N/A
Wind: 12 mph from Southwest

Location: Roberts Field

Current Time: Apr 19, 2015 at 3:53:20 PM

Latest Report: Apr 19, 2015 at 3:30 PM


Visibility: N/A

Pressure: 29.80 "Hg

Humidity: 84%

Dew point: 79 °F

Location of KakataLocation

Historic Weather in Kakata — Graph

°F

Kakata temperature yesterday

Maximum temperature yesterday: 90 °F (at 10:30 AM)
Minimum temperature yesterday: 77 °F (at 2:00 AM)
Average temperature yesterday: 83 °F

Past Weeks' High & Low Weather Summary

 TemperatureHumidityPressure
High93 °F (Apr 9, 1:30 PM)100% (Apr 6, 9:00 AM)30.01 "Hg (Apr 6, 9:00 AM)
Low72 °F (Apr 5, 6:00 AM)55% (Apr 17, 5:00 PM)29.77 "Hg (Apr 5, 3:30 PM)
Average81 °F85%29.87 "Hg
* Reported Apr 4 3:00 PM — Apr 19 3:00 PM, Kakata, Weather by CustomWeather, © 2015

Note: Actual official high and low records may vary slightly from our data, if they occured in-between our weather recording intervals... More about our weather records

Advertising

Kakata weather history for previous 24 hours

 ConditionsComfort  
Time TempWeatherWind HumidityBarometerVisibility
3:00 PM
Sun, Apr 19
82 °FThunderstorms. Partly sunny.7 mph89%29.80 "Hg6 mi
2:30 PM90 °FThunderstorms. Partly sunny.14 mph67%29.83 "Hg5 mi
2:00 PM90 °FPartly sunny.9 mph67%29.83 "HgN/A
1:30 PM88 °FPartly sunny.12 mph75%29.83 "HgN/A
1:00 PM86 °FPartly sunny.7 mph75%29.86 "HgN/A
12:30 PM86 °FPartly sunny.8 mph75%29.86 "HgN/A
12:00 PM86 °FPartly sunny.6 mph75%29.86 "HgN/A
10:30 AM86 °FPartly sunny.No wind75%29.89 "HgN/A
10:00 AM84 °FPartly sunny.No wind79%29.92 "HgN/A
9:30 AM82 °FPartly sunny.3 mph84%29.92 "HgN/A
9:00 AM82 °FPartly sunny.No wind84%29.89 "HgN/A
8:30 AM81 °FPartly sunny.No wind94%29.89 "Hg6 mi
8:00 AM79 °FFog.No wind94%29.86 "Hg3 mi
7:30 AM79 °FFog.No wind94%29.86 "Hg2 mi
7:00 AM79 °FFog.No wind94%29.86 "Hg2 mi
6:20 AM77 °FFog.No wind100%29.86 "Hg2 mi
6:00 AM77 °FPassing clouds.No wind100%29.86 "Hg4 mi
5:00 AM79 °FPassing clouds.No wind94%29.83 "Hg5 mi
4:30 AM79 °FPassing clouds.No wind94%29.83 "HgN/A
4:00 AM79 °FPassing clouds.No wind94%29.83 "HgN/A
3:00 AM79 °FPassing clouds.No wind94%29.83 "HgN/A
2:30 AM79 °FPassing clouds.No wind94%29.86 "HgN/A
12:00 AM79 °FPassing clouds.No wind94%29.89 "HgN/A
11:30 PM
Sat, Apr 18
79 °FPassing clouds.No wind94%29.89 "HgN/A
11:00 PM79 °FPassing clouds.No wind94%29.89 "HgN/A
10:30 PM79 °FPassing clouds.No wind94%29.89 "HgN/A
10:00 PM79 °FPassing clouds.No wind94%29.89 "HgN/A
8:30 PM79 °FPassing clouds.No wind94%29.86 "HgN/A
8:00 PM81 °FPassing clouds.No wind94%29.83 "HgN/A
7:30 PM79 °FScattered clouds.3 mph100%29.83 "HgN/A
7:00 PM82 °FScattered clouds.3 mph84%29.83 "HgN/A
6:30 PM82 °FPassing clouds.3 mph84%29.83 "HgN/A
6:00 PM84 °FPassing clouds.5 mph84%29.83 "HgN/A
5:30 PM86 °FPassing clouds.9 mph75%29.80 "HgN/A
5:00 PM86 °FPassing clouds.8 mph75%29.80 "HgN/A
4:30 PM88 °FPassing clouds.10 mph75%29.80 "HgN/A
4:00 PM88 °FPassing clouds.12 mph66%29.80 "HgN/A
3:30 PM90 °FPassing clouds.13 mph67%29.83 "HgN/A
3:00 PM90 °FPassing clouds.13 mph67%29.83 "HgN/A
Weather by CustomWeather, © 2015

See weather overviewHow to use our weather pages